Skip Page Navigation
NASA JPL Caltech
NASA Logo - Jet Propulsion Laboratory + View the NASA Portal
+ Near-Earth Object (NEO) Program
Search JPL
JPL Home Earth Solar System Stars & Galaxies Technology
JPL Solar System Dynamics
BODIES ORBITS EPHEMERIDES TOOLS PHYSICAL DATA DISCOVERY FAQ SITE MAP
JPL Small-Body Database Browser
Search: [ help ]  
12005 Delgiudice (1996 KA3)
Classification: Main-belt Asteroid          SPK-ID: 2012005
Ephemeris | Orbit Diagram | Orbital Elements | Physical Parameters | Discovery Circumstances | Close-Approach Data ]

[ show orbit diagram ]
Orbital Elements at Epoch 2457000.5 (2014-Dec-09.0) TDB
Reference: JPL 11 (heliocentric ecliptic J2000)
 Element Value Uncertainty (1-sigma)   Units 
e .1646740799270104 6.7157e-08  
a 3.162988003324207 3.1998e-08 AU
q 2.642125864056621 2.2041e-07 AU
i 10.91051313876233 6.6075e-06 deg
node 132.9284030252158 3.1025e-05 deg
peri 136.9223340927117 3.6601e-05 deg
M .212755128522382 2.2729e-05 deg
tp 2456999.285710384883
(2014-Dec-07.78571039)
0.00012972 JED
period 2054.682603791126
5.63
3.1178e-05
8.536e-08
d
yr
n .1752095429901234 2.6587e-09 deg/d
Q 3.683850142591792 3.7267e-08 AU
  Orbit Determination Parameters
   # obs. used (total)      1038  
   data-arc span      6822 days (18.68 yr)  
   first obs. used      1995-11-20  
   last obs. used      2014-07-25  
   planetary ephem.      DE431  
   SB-pert. ephem.      SB431-BIG16  
   condition code      0  
   fit RMS      .52818  
   data source      ORB  
   producer      Otto Matic  
   solution date      2014-Aug-13 14:19:43  

Additional Information
 Earth MOID = 1.63982 AU 
 T_jup = 3.155 
[ show covariance matrix ]

Ephemeris | Orbit Diagram | Orbital Elements | Physical Parameters | Discovery Circumstances | Close-Approach Data ]

Physical Parameter Table
Parameter Symbol Value Units Sigma Reference Notes
absolute magnitude H 12.6 mag n/a MPO263457  

12005 Delgiudice           Discovered 1996 May 19 by R. Weber et al. at Socorro.
Maria del Giudice (b. 1964) was a good and great friend of one of the team's observers and measurers, Frank Shelly. She is now his wife.
NOTE: some special characters may not display properly (any characters within {} are an attempt to place the proper accent above a character)
Reference: 20080618/MPCPages.arcLast Updated: 2008-06-20

[ show close-approach data ]
Alternate Designations
 1996 KA3 = 1987 SY13 = 1997 JP 
Ephemeris | Orbit Diagram | Orbital Elements | Physical Parameters | Discovery Circumstances | Close-Approach Data ]
ABOUT SSD CREDITS/AWARDS PRIVACY/COPYRIGHT GLOSSARY LINKS
FirstGov 2014-Aug-20 22:25 UT
(server date/time)  
NASA Home Page
Site Manager:   Donald K. Yeomans
Webmaster  Alan B. Chamberlin